Location: Recife
(8.0585°S, 34.8848°W)
Time: 10:42:53
(UTC-03:00)

Courier 1B Rocket - Pass Details

Date: 19 April 2026
Orbit: 920 x 1201 km, 28.2° (Epoch: 13 May)

Event Time Altitude Azimuth Distance (km) Brightness Sun altitude
Rises 04:26:32 0° 274° (W) 3,549 - -14.3°
Reaches altitude 10° 04:29:23 10° 265° (W) 2,619 - -13.6°
Exits shadow 04:31:04 18° 254° (WSW) 2,137 6.1 -13.2°
Maximum altitude 04:34:56 32° 202° (SSW) 1,560 5.8 -12.2°
Drops below altitude 10° 04:40:44 10° 140° (SE) 2,736 7.8 -10.8°
Sets 04:43:47 0° 131° (SE) 3,730 8.7 -10.1°
